Flag for Germany Weather past 2 weeks in Neustadt an der Weinstraße, Rhineland-Palatinate, Germany

Now
48 °F

Clear.


Feels Like: 48 °F
Forecast: 42 / 55 °F
Wind: No wind

Location: Baden Wurttemberg - Neuostheim

Current Time: Oct 24, 2014 at 10:44:04 PM

Latest Report: Oct 24, 2014 at 8:50 PM


Visibility: 10 mi

Pressure: 30.12 "Hg

Humidity: 87%

Dew point: 45 °F

Location of Neustadt an der WeinstraßeLocation

Historic Weather in Neustadt an der Weinstraße — Graph

°F

Neustadt an der Weinstraße temperature yesterday

Maximum temperature yesterday: 55 °F (at 3:20 PM)
Minimum temperature yesterday: 48 °F (at 6:50 AM)
Average temperature yesterday: 52 °F

Past Weeks' High & Low Weather Summary

 TemperatureHumidityPressure
High75 °F (Oct 19, 4:20 PM)100% (Oct 9, 10:20 PM)30.30 "Hg (Oct 9, 10:20 PM)
Low37 °F (Oct 24, 6:20 AM)57% (Oct 14, 3:20 PM)29.62 "Hg (Oct 21, 5:50 PM)
Average59 °F81%29.97 "Hg
* Reported Oct 9 8:20 PM — Oct 24 8:50 PM, Neustadt an der Weinstraße, Weather by CustomWeather, © 2014

Note: Actual official high and low records may vary slightly from our data, if they occured in-between our weather recording intervals... More about our weather records

Advertising

Neustadt an der Weinstraße weather history for previous 24 hours

 ConditionsComfort  
Time TempWeatherWind HumidityBarometerVisibility
8:50 PM
Oct 24
48 °FClear.No wind87%30.12 "Hg10 mi
8:20 PM48 °FClear.2 mph94%30.12 "Hg10 mi
7:50 PM50 °FClear.2 mph88%30.12 "Hg10 mi
7:20 PM50 °FClear.2 mph82%30.12 "Hg10 mi
6:50 PM50 °FSunny.1 mph82%30.12 "Hg10 mi
6:20 PM55 °FSunny.2 mph67%30.12 "Hg10 mi
5:50 PM57 °FSunny.3 mph63%30.12 "Hg10 mi
5:20 PM57 °FPassing clouds.5 mph63%30.12 "HgN/A
4:50 PM57 °FPassing clouds.5 mph63%30.12 "HgN/A
4:20 PM57 °FPassing clouds.5 mph63%30.12 "HgN/A
3:50 PM59 °FPassing clouds.8 mph59%30.15 "HgN/A
3:20 PM59 °FPassing clouds.8 mph59%30.15 "HgN/A
2:50 PM57 °FPassing clouds.9 mph63%30.15 "HgN/A
2:20 PM57 °FPassing clouds.9 mph59%30.18 "HgN/A
1:50 PM57 °FPassing clouds.8 mph59%30.18 "HgN/A
1:20 PM55 °FPassing clouds.9 mph63%30.18 "HgN/A
12:50 PM55 °FPassing clouds.5 mph67%30.21 "HgN/A
12:20 PM54 °FClear.7 mph72%30.21 "Hg5 mi
11:50 AM52 °FClear.5 mph77%30.21 "Hg5 mi
11:20 AM48 °FClear.6 mph87%30.24 "Hg5 mi
10:50 AM48 °FClear.2 mph94%30.24 "Hg5 mi
10:20 AM46 °FClear.2 mph100%30.24 "Hg4 mi
9:50 AM45 °FFog.1 mph93%30.24 "Hg3 mi
9:20 AM41 °FFog.1 mph100%30.21 "Hg1 mi
8:50 AM41 °FFog.2 mph100%30.24 "Hg1 mi
8:20 AM37 °FFog.No wind100%30.24 "Hg1 mi
7:50 AM39 °FLow clouds.1 mph93%30.24 "Hg1 mi
7:20 AM39 °FFog.1 mph100%30.21 "Hg1 mi
6:50 AM39 °FFog.1 mph100%30.21 "Hg3 mi
6:20 AM37 °FFog.No wind100%30.21 "Hg3 mi
5:50 AM39 °FFog.1 mph100%30.21 "Hg3 mi
Weather by CustomWeather, © 2014

See weather overviewHow to use our weather pages